| time (UTC) | temp C | wind direction | speed KPH | gust KPH | rain 1hr cm | rain 24hr cm | rain mn cm | humidity % | barometer mb |
| 20260507170335 | 13 | 248 | 3.2 | 16.1 | 0.00 | 0.00 | 0.00 | 49 | 1014.9 |
| 20260507165825 | 13 | 264 | 6.4 | 14.5 | 0.00 | 0.00 | 0.00 | 47 | 1014.8 |
| 20260507165331 | 13 | 252 | 6.4 | 12.9 | 0.00 | 0.00 | 0.00 | 45 | 1014.8 |
| 20260507164819 | 12 | 212 | 1.6 | 8.0 | 0.00 | 0.00 | 0.00 | 44 | 1014.9 |
| 20260507164329 | 12 | 235 | 3.2 | 12.9 | 0.00 | 0.00 | 0.00 | 44 | 1014.9 |
| 20260507163817 | 12 | 264 | 6.4 | 12.9 | 0.00 | 0.00 | 0.00 | 43 | 1014.8 |
| 20260507163328 | 12 | 270 | 6.4 | 11.3 | 0.00 | 0.00 | 0.00 | 43 | 1014.8 |
| 20260507162819 | 12 | 307 | 6.4 | 12.9 | 0.00 | 0.00 | 0.00 | 44 | 1014.8 |
| 20260507162328 | 12 | 270 | 6.4 | 12.9 | 0.00 | 0.00 | 0.00 | 44 | 1014.8 |
| 20260507161818 | 12 | 235 | 3.2 | 6.4 | 0.00 | 0.00 | 0.00 | 44 | 1014.8 |
| 20260507161330 | 12 | 205 | 1.6 | 9.7 | 0.00 | 0.00 | 0.00 | 45 | 1014.8 |
| 20260507160819 | 11 | 346 | 4.8 | 9.7 | 0.00 | 0.00 | 0.00 | 47 | 1014.8 |
| 20260507160326 | 11 | 49 | 3.2 | 6.4 | 0.00 | 0.00 | 0.00 | 50 | 1014.8 |
| 20260507155834 | 11 | 347 | 6.4 | 8.0 | 0.00 | 0.00 | 0.00 | 49 | 1014.8 |
| 20260507155321 | 10 | 99 | 1.6 | 4.8 | 0.00 | 0.00 | 0.00 | 50 | 1014.9 |
| 20260507154830 | 10 | 103 | 3.2 | 6.4 | 0.00 | 0.00 | 0.00 | 52 | 1015.0 |
| 20260507154318 | 10 | 139 | 3.2 | 6.4 | 0.00 | 0.00 | 0.00 | 52 | 1014.8 |
| 20260507153851 | 9 | 110 | 1.6 | 4.8 | 0.00 | 0.00 | 0.00 | 53 | 1015.0 |
| 20260507153318 | 8 | 108 | 1.6 | 4.8 | 0.00 | 0.00 | 0.00 | 54 | 1015.0 |
| 20260507152826 | 8 | 43 | 3.2 | 6.4 | 0.00 | 0.00 | 0.00 | 55 | 1015.1 |
| 20260507152331 | 8 | 41 | 1.6 | 6.4 | 0.00 | 0.00 | 0.00 | 56 | 1015.3 |
| 20260507151821 | 8 | 150 | 0.0 | 3.2 | 0.00 | 0.00 | 0.00 | 60 | 1015.3 |
| 20260507151330 | 7 | 134 | 1.6 | 3.2 | 0.00 | 0.00 | 0.00 | 60 | 1015.3 |
| 20260507150818 | 6 | 128 | 0.0 | 1.6 | 0.00 | 0.00 | 0.00 | 63 | 1015.5 |
| 20260507150341 | 6 | 209 | 0.0 | 3.2 | 0.00 | 0.00 | 0.00 | 66 | 1015.5 |
| 20260507145828 | 5 | 110 | 0.0 | 3.2 | 0.00 | 0.00 | 0.00 | 67 | 1015.5 |
| 20260507145318 | 5 | 107 | 0.0 | 3.2 | 0.00 | 0.00 | 0.00 | 64 | 1015.5 |
| 20260507144828 | 5 | 107 | 1.6 | 3.2 | 0.00 | 0.00 | 0.00 | 63 | 1015.5 |
| 20260507144316 | 5 | 103 | 0.0 | 1.6 | 0.00 | 0.00 | 0.00 | 60 | 1015.5 |
| 20260507143823 | 5 | 61 | 0.0 | 1.6 | 0.00 | 0.00 | 0.00 | 59 | 1015.5 |
| 20260507143352 | 5 | 61 | 0.0 | 1.6 | 0.00 | 0.00 | 0.00 | 59 | 1015.5 |
| 20260507142822 | 5 | 61 | 1.6 | 1.6 | 0.00 | 0.00 | 0.00 | 58 | 1015.5 |
| 20260507142358 | 5 | 60 | 0.0 | 1.6 | 0.00 | 0.00 | 0.00 | 58 | 1015.3 |
| 20260507141846 | 4 | 61 | 0.0 | 1.6 | 0.00 | 0.00 | 0.00 | 58 | 1015.2 |
| 20260507141314 | 4 | 61 | 0.0 | 0.0 | 0.00 | 0.00 | 0.00 | 59 | 1015.3 |
| 20260507140849 | 4 | 61 | 0.0 | 0.0 | 0.00 | 0.00 | 0.00 | 60 | 1015.3 |
| 20260507140332 | 3 | 61 | 0.0 | 1.6 | 0.00 | 0.00 | 0.00 | 60 | 1015.2 |
| 20260507135821 | 3 | 61 | 0.0 | 1.6 | 0.00 | 0.00 | 0.00 | 62 | 1015.1 |
| 20260507135329 | 3 | 61 | 0.0 | 1.6 | 0.00 | 0.00 | 0.00 | 62 | 1015.1 |
| 20260507134839 | 3 | 61 | 0.0 | 1.6 | 0.00 | 0.00 | 0.00 | 63 | 1015.0 |
| 20260507134328 | 2 | 60 | 0.0 | 3.2 | 0.00 | 0.00 | 0.00 | 63 | 1015.0 |
| 20260507133838 | 2 | 60 | 1.6 | 3.2 | 0.00 | 0.00 | 0.00 | 64 | 1015.0 |
| 20260507133345 | 2 | 60 | 0.0 | 3.2 | 0.00 | 0.00 | 0.00 | 64 | 1015.1 |
| 20260507132834 | 2 | 68 | 0.0 | 1.6 | 0.00 | 0.00 | 0.00 | 65 | 1015.0 |
| 20260507132324 | 2 | 68 | 0.0 | 6.4 | 0.00 | 0.00 | 0.00 | 64 | 1015.0 |
| 20260507131834 | 2 | 47 | 1.6 | 6.4 | 0.00 | 0.00 | 0.00 | 64 | 1014.9 |
| 20260507131324 | 2 | 108 | 0.0 | 1.6 | 0.00 | 0.00 | 0.00 | 65 | 1014.9 |
| 20260507130834 | 2 | 107 | 0.0 | 1.6 | 0.00 | 0.00 | 0.00 | 64 | 1014.9 |
| 20260507130323 | 2 | 106 | 0.0 | 3.2 | 0.00 | 0.00 | 0.00 | 64 | 1015.0 |
| 20260507125832 | 2 | 107 | 1.6 | 3.2 | 0.00 | 0.00 | 0.00 | 64 | 1014.9 |
| 20260507125320 | 2 | 145 | 1.6 | 3.2 | 0.00 | 0.00 | 0.00 | 65 | 1014.8 |
| 20260507124831 | 1 | 207 | 0.0 | 3.2 | 0.00 | 0.00 | 0.00 | 66 | 1014.9 |
| 20260507124321 | 1 | 207 | 0.0 | 1.6 | 0.00 | 0.00 | 0.00 | 67 | 1014.8 |
| 20260507123828 | 1 | 207 | 0.0 | 1.6 | 0.00 | 0.00 | 0.00 | 67 | 1014.8 |
| 20260507123319 | 1 | 207 | 0.0 | 1.6 | 0.00 | 0.00 | 0.00 | 66 | 1014.7 |
| 20260507122826 | 1 | 207 | 0.0 | 1.6 | 0.00 | 0.00 | 0.00 | 66 | 1014.6 |
| 20260507122317 | 1 | 207 | 0.0 | 1.6 | 0.00 | 0.00 | 0.00 | 66 | 1014.6 |
| 20260507121828 | 1 | 207 | 0.0 | 1.6 | 0.00 | 0.00 | 0.00 | 68 | 1014.5 |
| 20260507121318 | 1 | 207 | 0.0 | 1.6 | 0.00 | 0.00 | 0.00 | 71 | 1014.4 |
| 20260507120849 | 0 | 207 | 0.0 | 1.6 | 0.00 | 0.00 | 0.00 | 71 | 1014.4 |
| 20260507120318 | 0 | 207 | 0.0 | 0.0 | 0.00 | 0.00 | 0.00 | 71 | 1014.4 |
| 20260507115825 | 0 | 209 | 0.0 | 1.6 | 0.00 | 0.00 | 0.00 | 71 | 1014.4 |
| 20260507115316 | 0 | 208 | 0.0 | 1.6 | 0.00 | 0.00 | 0.00 | 69 | 1014.4 |
| 20260507114823 | 0 | 208 | 0.0 | 1.6 | 0.00 | 0.00 | 0.00 | 69 | 1014.2 |
| 20260507114332 | 0 | 208 | 0.0 | 1.6 | 0.00 | 0.00 | 0.00 | 69 | 1014.2 |
| 20260507113822 | 0 | 208 | 1.6 | 1.6 | 0.00 | 0.00 | 0.00 | 68 | 1014.2 |
| 20260507113333 | -1 | 208 | 0.0 | 1.6 | 0.00 | 0.00 | 0.00 | 70 | 1014.1 |
| 20260507112822 | 0 | 208 | 0.0 | 0.0 | 0.00 | 0.00 | 0.00 | 69 | 1013.9 |
| 20260507112312 | 0 | 208 | 0.0 | 3.2 | 0.00 | 0.00 | 0.00 | 71 | 1013.9 |
| 20260507111849 | 0 | 208 | 0.0 | 3.2 | 0.00 | 0.00 | 0.00 | 72 | 1014.0 |
| 20260507111318 | 0 | 209 | 0.0 | 1.6 | 0.00 | 0.00 | 0.00 | 72 | 1014.0 |
| 20260507110827 | -1 | 208 | 0.0 | 1.6 | 0.00 | 0.00 | 0.00 | 72 | 1014.0 |
| 20260507110336 | -1 | 207 | 0.0 | 1.6 | 0.00 | 0.00 | 0.00 | 72 | 1014.1 |
| 20260507105847 | -1 | 209 | 0.0 | 3.2 | 0.00 | 0.00 | 0.00 | 72 | 1014.1 |
| 20260507105352 | -1 | 208 | 0.0 | 3.2 | 0.00 | 0.00 | 0.00 | 71 | 1014.0 |
| 20260507104820 | -1 | 208 | 1.6 | 3.2 | 0.00 | 0.00 | 0.00 | 70 | 1014.0 |
| 20260507104329 | -1 | 207 | 0.0 | 1.6 | 0.00 | 0.00 | 0.00 | 70 | 1014.1 |
| 20260507103839 | 0 | 208 | 0.0 | 1.6 | 0.00 | 0.00 | 0.00 | 72 | 1014.1 |
| 20260507103326 | 0 | 208 | 0.0 | 1.6 | 0.00 | 0.00 | 0.00 | 73 | 1014.1 |
| 20260507102816 | 0 | 208 | 0.0 | 1.6 | 0.00 | 0.00 | 0.00 | 73 | 1013.9 |
| 20260507102325 | 0 | 209 | 0.0 | 1.6 | 0.00 | 0.00 | 0.00 | 72 | 1013.9 |
| 20260507101832 | 0 | 208 | 0.0 | 1.6 | 0.00 | 0.00 | 0.00 | 71 | 1013.9 |
| 20260507101322 | 0 | 207 | 0.0 | 1.6 | 0.00 | 0.00 | 0.00 | 70 | 1014.0 |
| 20260507100813 | 0 | 208 | 0.0 | 0.0 | 0.00 | 0.00 | 0.00 | 69 | 1013.9 |
| 20260507100349 | 0 | 208 | 0.0 | 0.0 | 0.00 | 0.00 | 0.00 | 68 | 1013.9 |
| 20260507095819 | 0 | 208 | 0.0 | 1.6 | 0.00 | 0.00 | 0.00 | 67 | 1013.9 |
| 20260507095354 | 0 | 208 | 0.0 | 3.2 | 0.00 | 0.00 | 0.00 | 67 | 1013.8 |
| 20260507094824 | 0 | 208 | 1.6 | 3.2 | 0.00 | 0.00 | 0.00 | 70 | 1013.8 |
| 20260507094314 | 0 | 208 | 0.0 | 3.2 | 0.00 | 0.00 | 0.00 | 70 | 1013.8 |
| 20260507093850 | 0 | 208 | 0.0 | 1.6 | 0.00 | 0.00 | 0.00 | 70 | 1013.8 |
| 20260507093336 | 0 | 208 | 0.0 | 0.0 | 0.00 | 0.00 | 0.00 | 70 | 1013.8 |
| 20260507092841 | 0 | 208 | 0.0 | 0.0 | 0.00 | 0.00 | 0.00 | 68 | 1013.9 |
| 20260507092350 | 0 | 208 | 0.0 | 0.0 | 0.00 | 0.00 | 0.00 | 64 | 1013.9 |
| 20260507091816 | 0 | 209 | 0.0 | 0.0 | 0.00 | 0.00 | 0.00 | 63 | 1013.9 |
| 20260507091325 | 0 | 208 | 0.0 | 1.6 | 0.00 | 0.00 | 0.00 | 64 | 1013.9 |
| 20260507090854 | 0 | 207 | 0.0 | 1.6 | 0.00 | 0.00 | 0.00 | 66 | 1013.9 |
| 20260507090323 | 0 | 208 | 0.0 | 1.6 | 0.00 | 0.00 | 0.00 | 65 | 1013.7 |
| 20260507085833 | 0 | 208 | 0.0 | 0.0 | 0.00 | 0.00 | 0.00 | 64 | 1013.8 |
| 20260507085322 | 0 | 208 | 0.0 | 1.6 | 0.00 | 0.00 | 0.00 | 64 | 1013.7 |
| 20260507084833 | 0 | 208 | 0.0 | 1.6 | 0.00 | 0.00 | 0.00 | 68 | 1013.5 |
| 20260507084322 | 0 | 208 | 0.0 | 1.6 | 0.00 | 0.00 | 0.00 | 67 | 1013.5 |
| 20260507083831 | 0 | 208 | 0.0 | 1.6 | 0.00 | 0.00 | 0.00 | 65 | 1013.5 |
| 20260507083321 | 0 | 207 | 0.0 | 1.6 | 0.00 | 0.00 | 0.00 | 61 | 1013.6 |
| 20260507082831 | 0 | 208 | 0.0 | 0.0 | 0.00 | 0.00 | 0.00 | 61 | 1013.5 |
| 20260507082321 | 0 | 208 | 0.0 | 0.0 | 0.00 | 0.00 | 0.00 | 61 | 1013.5 |
| 20260507081847 | 0 | 208 | 0.0 | 0.0 | 0.00 | 0.00 | 0.00 | 60 | 1013.5 |
| 20260507081315 | 0 | 209 | 0.0 | 0.0 | 0.00 | 0.00 | 0.00 | 60 | 1013.6 |
| 20260507080823 | 0 | 208 | 0.0 | 1.6 | 0.00 | 0.00 | 0.00 | 59 | 1013.5 |
| 20260507080329 | 0 | 208 | 0.0 | 1.6 | 0.00 | 0.00 | 0.00 | 59 | 1013.4 |
| 20260507075820 | 0 | 208 | 0.0 | 0.0 | 0.00 | 0.00 | 0.00 | 60 | 1013.5 |
| 20260507075330 | 0 | 209 | 0.0 | 0.0 | 0.00 | 0.00 | 0.00 | 60 | 1013.5 |
| 20260507074840 | 0 | 208 | 0.0 | 1.6 | 0.00 | 0.00 | 0.00 | 59 | 1013.5 |
| 20260507074329 | 1 | 208 | 0.0 | 1.6 | 0.00 | 0.00 | 0.00 | 61 | 1013.5 |
| 20260507073839 | 1 | 208 | 1.6 | 1.6 | 0.00 | 0.00 | 0.00 | 63 | 1013.5 |
| 20260507073329 | 1 | 208 | 0.0 | 0.0 | 0.00 | 0.00 | 0.00 | 61 | 1013.5 |
| 20260507072821 | 1 | 208 | 0.0 | 1.6 | 0.00 | 0.00 | 0.00 | 60 | 1013.5 |
| 20260507072355 | 1 | 208 | 0.0 | 1.6 | 0.00 | 0.00 | 0.00 | 61 | 1013.7 |
| 20260507071824 | 1 | 208 | 0.0 | 0.0 | 0.00 | 0.00 | 0.00 | 60 | 1013.8 |
| 20260507071335 | 1 | 208 | 0.0 | 0.0 | 0.00 | 0.00 | 0.00 | 60 | 1013.8 |
| 20260507070841 | 1 | 208 | 0.0 | 1.6 | 0.00 | 0.00 | 0.00 | 61 | 1013.9 |
| 20260507070350 | 1 | 209 | 0.0 | 3.2 | 0.00 | 0.00 | 0.00 | 61 | 1013.9 |
| 20260507065818 | 1 | 208 | 0.0 | 3.2 | 0.00 | 0.00 | 0.00 | 60 | 1013.9 |
| 20260507065327 | 1 | 209 | 0.0 | 1.6 | 0.00 | 0.00 | 0.00 | 59 | 1014.1 |
| 20260507064818 | 1 | 209 | 0.0 | 1.6 | 0.00 | 0.00 | 0.00 | 57 | 1014.2 |
| 20260507064325 | 1 | 209 | 0.0 | 1.6 | 0.00 | 0.00 | 0.00 | 53 | 1014.2 |
| 20260507063815 | 1 | 209 | 0.0 | 1.6 | 0.00 | 0.00 | 0.00 | 51 | 1014.1 |
| 20260507063322 | 1 | 208 | 0.0 | 0.0 | 0.00 | 0.00 | 0.00 | 50 | 1014.2 |
| 20260507062830 | 1 | 209 | 0.0 | 1.6 | 0.00 | 0.00 | 0.00 | 52 | 1014.2 |
| 20260507062320 | 1 | 209 | 0.0 | 1.6 | 0.00 | 0.00 | 0.00 | 56 | 1014.2 |
| 20260507061829 | 1 | 209 | 0.0 | 1.6 | 0.00 | 0.00 | 0.00 | 59 | 1014.2 |
| 20260507061319 | 2 | 209 | 0.0 | 1.6 | 0.00 | 0.00 | 0.00 | 58 | 1014.2 |
| 20260507060830 | 2 | 209 | 0.0 | 1.6 | 0.00 | 0.00 | 0.00 | 61 | 1014.2 |
| 20260507060320 | 2 | 209 | 0.0 | 1.6 | 0.00 | 0.00 | 0.00 | 64 | 1014.2 |
| 20260507055845 | 2 | 209 | 0.0 | 1.6 | 0.00 | 0.00 | 0.00 | 64 | 1014.1 |
| 20260507055334 | 3 | 209 | 0.0 | 1.6 | 0.00 | 0.00 | 0.00 | 64 | 1014.2 |
| 20260507054824 | 3 | 208 | 0.0 | 1.6 | 0.00 | 0.00 | 0.00 | 64 | 1014.4 |
| 20260507054350 | 2 | 209 | 0.0 | 1.6 | 0.00 | 0.00 | 0.00 | 65 | 1014.3 |
| 20260507053839 | 2 | 210 | 0.0 | 1.6 | 0.00 | 0.00 | 0.00 | 65 | 1014.4 |
| 20260507053348 | 3 | 210 | 0.0 | 0.0 | 0.00 | 0.00 | 0.00 | 64 | 1014.4 |
| 20260507052818 | 3 | 210 | 0.0 | 1.6 | 0.00 | 0.00 | 0.00 | 63 | 1014.5 |
| 20260507052327 | 3 | 210 | 0.0 | 1.6 | 0.00 | 0.00 | 0.00 | 63 | 1014.5 |
| 20260507051814 | 3 | 210 | 0.0 | 3.2 | 0.00 | 0.00 | 0.00 | 63 | 1014.6 |
| 20260507051343 | 3 | 210 | 0.0 | 3.2 | 0.00 | 0.00 | 0.00 | 61 | 1014.5 |
| 20260507050850 | 3 | 199 | 0.0 | 1.6 | 0.00 | 0.00 | 0.00 | 60 | 1014.5 |
| 20260507050341 | 4 | 118 | 0.0 | 1.6 | 0.00 | 0.00 | 0.00 | 61 | 1014.5 |
| 20260507045832 | 4 | 119 | 0.0 | 1.6 | 0.00 | 0.00 | 0.00 | 59 | 1014.5 |
| 20260507045322 | 4 | 123 | 1.6 | 1.6 | 0.00 | 0.00 | 0.00 | 58 | 1014.5 |
| 20260507044848 | 5 | 245 | 0.0 | 1.6 | 0.00 | 0.00 | 0.00 | 57 | 1014.6 |
| 20260507044316 | 5 | 244 | 0.0 | 3.2 | 0.00 | 0.00 | 0.00 | 58 | 1014.5 |
| 20260507043827 | 5 | 245 | 1.6 | 1.6 | 0.00 | 0.00 | 0.00 | 56 | 1014.6 |
| 20260507043317 | 5 | 245 | 1.6 | 1.6 | 0.00 | 0.00 | 0.00 | 56 | 1014.5 |
| 20260507042828 | 5 | 245 | 0.0 | 0.0 | 0.00 | 0.00 | 0.00 | 56 | 1014.6 |
| 20260507042319 | 5 | 244 | 0.0 | 0.0 | 0.00 | 0.00 | 0.00 | 56 | 1014.6 |
| 20260507041829 | 5 | 245 | 0.0 | 0.0 | 0.00 | 0.00 | 0.00 | 57 | 1014.6 |
| 20260507041320 | 5 | 244 | 0.0 | 0.0 | 0.00 | 0.00 | 0.00 | 59 | 1014.6 |
| 20260507040827 | 6 | 244 | 0.0 | 1.6 | 0.00 | 0.00 | 0.00 | 59 | 1014.6 |
| 20260507040316 | 6 | 244 | 0.0 | 1.6 | 0.00 | 0.00 | 0.00 | 57 | 1014.6 |
| 20260507035823 | 6 | 245 | 0.0 | 1.6 | 0.00 | 0.00 | 0.00 | 52 | 1014.6 |
| 20260507035334 | 6 | 244 | 0.0 | 1.6 | 0.00 | 0.00 | 0.00 | 47 | 1014.6 |
| 20260507034823 | 7 | 244 | 0.0 | 1.6 | 0.00 | 0.00 | 0.00 | 42 | 1014.6 |
| 20260507034332 | 7 | 245 | 0.0 | 1.6 | 0.00 | 0.00 | 0.00 | 41 | 1014.6 |
| 20260507033824 | 8 | 245 | 0.0 | 1.6 | 0.00 | 0.00 | 0.00 | 38 | 1014.5 |
| 20260507033314 | 8 | 245 | 0.0 | 3.2 | 0.00 | 0.00 | 0.00 | 38 | 1014.6 |
| 20260507031819 | 8 | 245 | 3.2 | 3.2 | 0.00 | 0.00 | 0.00 | 32 | 1014.6 |
| 20260507031329 | 8 | 245 | 3.2 | 3.2 | 0.00 | 0.00 | 0.00 | 30 | 1014.7 |
| 20260507030819 | 8 | 243 | 3.2 | 3.2 | 0.00 | 0.00 | 0.00 | 29 | 1014.7 |
| 20260507030324 | 8 | 262 | 0.0 | 4.8 | 0.00 | 0.00 | 0.00 | 28 | 1014.7 |
| 20260507025817 | 8 | 262 | 1.6 | 4.8 | 0.00 | 0.00 | 0.00 | 29 | 1014.7 |
| 20260507025327 | 8 | 262 | 1.6 | 3.2 | 0.00 | 0.00 | 0.00 | 29 | 1014.7 |
| 20260507024815 | 9 | 262 | 1.6 | 3.2 | 0.00 | 0.00 | 0.00 | 29 | 1014.8 |
| 20260507024326 | 9 | 262 | 1.6 | 3.2 | 0.00 | 0.00 | 0.00 | 29 | 1014.7 |
| 20260507023815 | 9 | 262 | 1.6 | 3.2 | 0.00 | 0.00 | 0.00 | 30 | 1014.7 |
| 20260507023327 | 9 | 262 | 1.6 | 3.2 | 0.00 | 0.00 | 0.00 | 29 | 1014.7 |
| 20260507022816 | 9 | 262 | 0.0 | 3.2 | 0.00 | 0.00 | 0.00 | 29 | 1014.8 |
| 20260507022321 | 9 | 262 | 1.6 | 3.2 | 0.00 | 0.00 | 0.00 | 29 | 1015.0 |
| 20260507021832 | 10 | 262 | 1.6 | 3.2 | 0.00 | 0.00 | 0.00 | 29 | 1015.0 |
| 20260507021321 | 10 | 270 | 1.6 | 6.4 | 0.00 | 0.00 | 0.00 | 29 | 1015.1 |
| 20260507020812 | 10 | 287 | 1.6 | 8.0 | 0.00 | 0.00 | 0.00 | 29 | 1015.2 |
| 20260507020328 | 10 | 274 | 3.2 | 8.0 | 0.00 | 0.00 | 0.00 | 29 | 1015.2 |
| 20260507015818 | 10 | 269 | 3.2 | 6.4 | 0.00 | 0.00 | 0.00 | 29 | 1015.2 |
| 20260507015327 | 10 | 286 | 3.2 | 9.7 | 0.00 | 0.00 | 0.00 | 27 | 1015.2 |
| 20260507014818 | 10 | 294 | 3.2 | 9.7 | 0.00 | 0.00 | 0.00 | 26 | 1015.3 |
| 20260507014328 | 10 | 320 | 4.8 | 8.0 | 0.00 | 0.00 | 0.00 | 26 | 1015.2 |
| 20260507013819 | 10 | 318 | 1.6 | 8.0 | 0.00 | 0.00 | 0.00 | 26 | 1015.3 |
| 20260507013328 | 10 | 294 | 1.6 | 9.7 | 0.00 | 0.00 | 0.00 | 25 | 1015.2 |
| 20260507012833 | 11 | 274 | 4.8 | 14.5 | 0.00 | 0.00 | 0.00 | 25 | 1015.2 |
| 20260507012320 | 11 | 281 | 4.8 | 14.5 | 0.00 | 0.00 | 0.00 | 24 | 1015.3 |
| 20260507011830 | 11 | 270 | 6.4 | 14.5 | 0.00 | 0.00 | 0.00 | 23 | 1015.3 |
| 20260507011319 | 12 | 314 | 1.6 | 8.0 | 0.00 | 0.00 | 0.00 | 23 | 1015.4 |
| 20260507010318 | 11 | 267 | 4.8 | 11.3 | 0.00 | 0.00 | 0.00 | 22 | 1015.3 |
| 20260507005824 | 11 | 244 | 4.8 | 16.1 | 0.00 | 0.00 | 0.00 | 22 | 1015.3 |
| 20260507005333 | 11 | 312 | 6.4 | 16.1 | 0.00 | 0.00 | 0.00 | 23 | 1015.4 |
| 20260507004821 | 11 | 338 | 4.8 | 8.0 | 0.00 | 0.00 | 0.00 | 23 | 1015.4 |
| 20260507004356 | 11 | 262 | 3.2 | 14.5 | 0.00 | 0.00 | 0.00 | 23 | 1015.4 |
| 20260507003824 | 11 | 273 | 6.4 | 14.5 | 0.00 | 0.00 | 0.00 | 22 | 1015.5 |
| 20260507002324 | 11 | 273 | 8.0 | 16.1 | 0.00 | 0.00 | 0.00 | 22 | 1015.5 |
| 20260507001831 | 11 | 237 | 4.8 | 17.7 | 0.00 | 0.00 | 0.00 | 22 | 1015.5 |
| 20260507001337 | 11 | 280 | 6.4 | 16.1 | 0.00 | 0.00 | 0.00 | 22 | 1015.6 |
| 20260507000825 | 11 | 288 | 8.0 | 17.7 | 0.00 | 0.00 | 0.00 | 23 | 1015.7 |
| 20260507000332 | 11 | 262 | 9.7 | 14.5 | 0.00 | 0.00 | 0.00 | 22 | 1015.8 |
| 20260506235837 | 11 | 284 | 9.7 | 19.3 | 0.00 | 0.00 | 0.00 | 22 | 1015.8 |
| 20260506235327 | 11 | 298 | 8.0 | 17.7 | 0.00 | 0.00 | 0.00 | 22 | 1015.8 |
| 20260506234814 | 11 | 281 | 6.4 | 19.3 | 0.00 | 0.00 | 0.00 | 22 | 1015.8 |
| 20260506234322 | 11 | 279 | 8.0 | 22.5 | 0.00 | 0.00 | 0.00 | 22 | 1015.9 |
| 20260506233830 | 11 | 245 | 8.0 | 29.0 | 0.00 | 0.00 | 0.00 | 22 | 1015.9 |
| 20260506233321 | 11 | 270 | 14.5 | 29.0 | 0.00 | 0.00 | 0.00 | 22 | 1015.9 |
| 20260506232830 | 11 | 285 | 12.9 | 20.9 | 0.00 | 0.00 | 0.00 | 22 | 1015.9 |
| 20260506232318 | 11 | 250 | 9.7 | 17.7 | 0.00 | 0.00 | 0.00 | 23 | 1015.9 |
| 20260506231848 | 11 | 264 | 8.0 | 17.7 | 0.00 | 0.00 | 0.00 | 22 | 1016.1 |
| 20260506231336 | 11 | 284 | 8.0 | 19.3 | 0.00 | 0.00 | 0.00 | 23 | 1016.1 |
| 20260506230844 | 11 | 286 | 9.7 | 19.3 | 0.00 | 0.00 | 0.00 | 22 | 1016.1 |
| 20260506230312 | 11 | 207 | 6.4 | 20.9 | 0.00 | 0.00 | 0.00 | 22 | 1016.2 |
| 20260506225849 | 11 | 208 | 9.7 | 22.5 | 0.00 | 0.00 | 0.00 | 22 | 1016.2 |
| 20260506225335 | 11 | 266 | 9.7 | 20.9 | 0.00 | 0.00 | 0.00 | 22 | 1016.4 |
| 20260506224841 | 11 | 95 | 4.8 | 16.1 | 0.00 | 0.00 | 0.00 | 24 | 1016.5 |
| 20260506224348 | 11 | 238 | 4.8 | 20.9 | 0.00 | 0.00 | 0.00 | 24 | 1016.6 |
| 20260506223815 | 11 | 256 | 9.7 | 20.9 | 0.00 | 0.00 | 0.00 | 24 | 1016.8 |
| 20260506223320 | 11 | 240 | 9.7 | 24.1 | 0.00 | 0.00 | 0.00 | 24 | 1016.9 |
| 20260506222847 | 11 | 202 | 11.3 | 25.7 | 0.00 | 0.00 | 0.00 | 23 | 1016.9 |
| 20260506222312 | 11 | 233 | 14.5 | 25.7 | 0.00 | 0.00 | 0.00 | 23 | 1016.9 |
| 20260506221848 | 10 | 235 | 9.7 | 20.9 | 0.00 | 0.00 | 0.00 | 23 | 1017.0 |
| 20260506221313 | 10 | 278 | 4.8 | 20.9 | 0.00 | 0.00 | 0.00 | 24 | 1017.0 |
| 20260506220847 | 10 | 257 | 8.0 | 14.5 | 0.00 | 0.00 | 0.00 | 23 | 1017.2 |
| 20260506220335 | 11 | 251 | 8.0 | 16.1 | 0.00 | 0.00 | 0.00 | 23 | 1017.2 |
| 20260506215826 | 11 | 231 | 6.4 | 22.5 | 0.00 | 0.00 | 0.00 | 24 | 1017.3 |
| 20260506215335 | 11 | 314 | 11.3 | 22.5 | 0.00 | 0.00 | 0.00 | 23 | 1017.3 |
| 20260506214826 | 11 | 214 | 6.4 | 17.7 | 0.00 | 0.00 | 0.00 | 23 | 1017.3 |
| 20260506214335 | 10 | 282 | 9.7 | 19.3 | 0.00 | 0.00 | 0.00 | 24 | 1017.4 |
| 20260506213824 | 10 | 212 | 8.0 | 24.1 | 0.00 | 0.00 | 0.00 | 24 | 1017.4 |
| 20260506213330 | 10 | 218 | 6.4 | 24.1 | 0.00 | 0.00 | 0.00 | 23 | 1017.6 |
| 20260506212821 | 10 | 210 | 14.5 | 25.7 | 0.00 | 0.00 | 0.00 | 23 | 1017.7 |
| 20260506212329 | 10 | 233 | 16.1 | 25.7 | 0.00 | 0.00 | 0.00 | 22 | 1017.8 |
| 20260506211838 | 10 | 240 | 14.5 | 24.1 | 0.00 | 0.00 | 0.00 | 24 | 1018.0 |
| 20260506211324 | 10 | 271 | 4.8 | 14.5 | 0.00 | 0.00 | 0.00 | 24 | 1018.1 |
| 20260506210833 | 10 | 314 | 4.8 | 14.5 | 0.00 | 0.00 | 0.00 | 24 | 1018.2 |
| 20260506210321 | 10 | 316 | 3.2 | 11.3 | 0.00 | 0.00 | 0.00 | 25 | 1018.3 |
| 20260506205828 | 10 | 293 | 1.6 | 16.1 | 0.00 | 0.00 | 0.00 | 26 | 1018.4 |
| 20260506205334 | 10 | 301 | 8.0 | 16.1 | 0.00 | 0.00 | 0.00 | 24 | 1018.5 |
| 20260506204821 | 10 | 266 | 8.0 | 22.5 | 0.00 | 0.00 | 0.00 | 25 | 1018.7 |
| 20260506204328 | 10 | 271 | 11.3 | 22.5 | 0.00 | 0.00 | 0.00 | 24 | 1018.7 |
| 20260506203834 | 10 | 262 | 9.7 | 17.7 | 0.00 | 0.00 | 0.00 | 25 | 1018.7 |
| 20260506203322 | 9 | 321 | 3.2 | 17.7 | 0.00 | 0.00 | 0.00 | 27 | 1018.8 |
| 20260506202830 | 8 | 207 | 8.0 | 19.3 | 0.00 | 0.00 | 0.00 | 27 | 1018.9 |
| 20260506202336 | 8 | 211 | 11.3 | 19.3 | 0.00 | 0.00 | 0.00 | 27 | 1019.0 |
| 20260506201824 | 8 | 81 | 3.2 | 16.1 | 0.00 | 0.00 | 0.00 | 28 | 1019.0 |
| 20260506201352 | 8 | 334 | 4.8 | 24.1 | 0.00 | 0.00 | 0.00 | 28 | 1019.0 |
| 20260506200835 | 9 | 332 | 9.7 | 24.1 | 0.00 | 0.00 | 0.00 | 27 | 1019.2 |
| 20260506200321 | 8 | 334 | 9.7 | 17.7 | 0.00 | 0.00 | 0.00 | 28 | 1019.2 |
| 20260506195829 | 8 | 235 | 9.7 | 20.9 | 0.00 | 0.00 | 0.00 | 29 | 1019.2 |
| 20260506195319 | 8 | 262 | 11.3 | 20.9 | 0.00 | 0.00 | 0.00 | 28 | 1019.2 |
| 20260506194830 | 8 | 251 | 9.7 | 19.3 | 0.00 | 0.00 | 0.00 | 29 | 1019.3 |
| 20260506194319 | 8 | 208 | 4.8 | 17.7 | 0.00 | 0.00 | 0.00 | 27 | 1019.4 |
| 20260506193826 | 8 | 260 | 9.7 | 19.3 | 0.00 | 0.00 | 0.00 | 27 | 1019.4 |
| 20260506193333 | 8 | 275 | 11.3 | 19.3 | 0.00 | 0.00 | 0.00 | 29 | 1019.4 |
| 20260506192821 | 8 | 291 | 8.0 | 16.1 | 0.00 | 0.00 | 0.00 | 28 | 1019.6 |
| 20260506192325 | 8 | 8 | 6.4 | 17.7 | 0.00 | 0.00 | 0.00 | 31 | 1019.6 |
| 20260506191834 | 8 | 263 | 4.8 | 20.9 | 0.00 | 0.00 | 0.00 | 30 | 1019.8 |
| 20260506191329 | 8 | 235 | 8.0 | 20.9 | 0.00 | 0.00 | 0.00 | 29 | 1019.9 |
| 20260506190819 | 8 | 306 | 11.3 | 17.7 | 0.00 | 0.00 | 0.00 | 30 | 1020.0 |
| 20260506190355 | 7 | 225 | 1.6 | 16.1 | 0.00 | 0.00 | 0.00 | 31 | 1020.1 |
| 20260506185823 | 7 | 242 | 9.7 | 17.7 | 0.00 | 0.00 | 0.00 | 32 | 1020.1 |
| 20260506185332 | 7 | 291 | 9.7 | 27.4 | 0.00 | 0.00 | 0.00 | 31 | 1020.2 |
| 20260506184820 | 7 | 284 | 9.7 | 27.4 | 0.00 | 0.00 | 0.00 | 31 | 1020.5 |
| 20260506184344 | 7 | 327 | 6.4 | 19.3 | 0.00 | 0.00 | 0.00 | 33 | 1020.4 |
| 20260506183831 | 7 | 300 | 8.0 | 19.3 | 0.00 | 0.00 | 0.00 | 32 | 1020.4 |
| 20260506183340 | 7 | 217 | 11.3 | 19.3 | 0.00 | 0.00 | 0.00 | 32 | 1020.6 |
| 20260506182850 | 7 | 293 | 9.7 | 17.7 | 0.00 | 0.00 | 0.00 | 33 | 1020.7 |
| 20260506182356 | 7 | 237 | 8.0 | 16.1 | 0.00 | 0.00 | 0.00 | 33 | 1020.7 |
| 20260506181822 | 6 | 277 | 4.8 | 16.1 | 0.00 | 0.00 | 0.00 | 33 | 1020.8 |
| 20260506181332 | 6 | 276 | 4.8 | 12.9 | 0.00 | 0.00 | 0.00 | 34 | 1020.8 |
| 20260506180822 | 6 | 22 | 8.0 | 12.9 | 0.00 | 0.00 | 0.00 | 34 | 1020.9 |
| 20260506180329 | 6 | 253 | 3.2 | 19.3 | 0.00 | 0.00 | 0.00 | 33 | 1021.1 |
| 20260506175819 | 6 | 321 | 11.3 | 19.3 | 0.00 | 0.00 | 0.00 | 32 | 1021.2 |
| 20260506175329 | 6 | 337 | 4.8 | 16.1 | 0.00 | 0.00 | 0.00 | 33 | 1021.2 |
| 20260506174819 | 6 | 333 | 6.4 | 19.3 | 0.00 | 0.00 | 0.00 | 34 | 1021.2 |
| 20260506174326 | 6 | 280 | 8.0 | 19.3 | 0.00 | 0.00 | 0.00 | 33 | 1021.3 |
| 20260506173835 | 6 | 252 | 6.4 | 17.7 | 0.00 | 0.00 | 0.00 | 35 | 1021.2 |
| 20260506173325 | 6 | 354 | 9.7 | 16.1 | 0.00 | 0.00 | 0.00 | 35 | 1021.2 |
| 20260506172829 | 5 | 38 | 6.4 | 16.1 | 0.00 | 0.00 | 0.00 | 36 | 1021.3 |
| 20260506172319 | 5 | 342 | 9.7 | 17.7 | 0.00 | 0.00 | 0.00 | 34 | 1021.3 |
| 20260506171849 | 5 | 347 | 8.0 | 17.7 | 0.00 | 0.00 | 0.00 | 36 | 1021.3 |
| 20260506171316 | 5 | 24 | 6.4 | 11.3 | 0.00 | 0.00 | 0.00 | 36 | 1021.4 |
| 20260506170827 | 5 | 49 | 3.2 | 17.7 | 0.00 | 0.00 | 0.00 | 35 | 1021.4 |